Time,TemperatureF,DewpointF,PressureIn,WindDirection,WindDirectionDegrees,WindSpeedMPH,WindSpeedGustMPH,Humidity,HourlyPrecipIn,Conditions,Clouds,dailyrainin,SoftwareType,DateUTC
2014-03-08 00:00:00,40.9,39.8,30.02,North,360,0.0,0.0,96,0.00,,CLR,0.00,VWS V15.00,2014-03-08 05:00:00,
2014-03-08 00:01:00,40.9,39.8,30.02,North,360,0.0,0.0,96,0.00,,CLR,0.00,VWS V15.00,2014-03-08 05:01:00,
2014-03-08 00:06:00,40.9,39.8,30.02,North,360,0.0,0.0,96,0.00,,CLR,0.00,VWS V15.00,2014-03-08 05:06:00,
2014-03-08 00:11:00,41.0,40.0,30.02,North,360,0.0,0.0,96,0.00,,CLR,0.00,VWS V15.00,2014-03-08 05:11:00,
2014-03-08 00:17:00,40.9,39.8,30.02,North,360,0.0,0.0,96,0.00,,CLR,0.00,VWS V15.00,2014-03-08 05:17:00,
2014-03-08 00:22:00,40.0,39.0,30.02,North,360,0.0,0.0,96,0.00,,CLR,0.00,VWS V15.00,2014-03-08 05:22:00,
2014-03-08 00:26:00,39.6,38.6,30.03,North,360,0.0,0.0,96,0.00,,CLR,0.00,VWS V15.00,2014-03-08 05:26:00,
2014-03-08 00:32:00,39.2,38.2,30.03,North,360,0.0,0.0,96,0.00,,CLR,0.00,VWS V15.00,2014-03-08 05:32:00,
2014-03-08 00:36:00,39.2,38.2,30.03,North,360,0.0,0.0,96,0.00,,CLR,0.00,VWS V15.00,2014-03-08 05:36:00,
2014-03-08 00:42:00,39.0,38.0,30.02,North,360,0.0,0.0,96,0.00,,CLR,0.00,VWS V15.00,2014-03-08 05:42:00,
2014-03-08 00:47:00,39.0,38.0,30.02,North,360,0.0,0.0,96,0.00,,CLR,0.00,VWS V15.00,2014-03-08 05:47:00,
2014-03-08 00:52:00,39.0,38.0,30.02,North,360,0.0,0.0,96,0.00,,CLR,0.00,VWS V15.00,2014-03-08 05:52:00,
2014-03-08 00:57:00,39.2,38.2,30.02,North,360,0.0,0.0,96,0.00,,CLR,0.00,VWS V15.00,2014-03-08 05:57:00,
2014-03-08 01:02:00,39.5,38.7,30.02,North,360,0.0,0.0,97,0.00,,CLR,0.00,VWS V15.00,2014-03-08 06:02:00,
2014-03-08 01:05:00,39.5,38.7,30.02,North,360,0.0,0.0,97,0.00,,CLR,0.00,VWS V15.00,2014-03-08 06:05:00,
2014-03-08 01:10:00,39.7,38.9,30.02,North,360,0.0,0.0,97,0.00,,CLR,0.00,VWS V15.00,2014-03-08 06:10:00,
2014-03-08 01:15:00,39.7,38.9,30.02,North,360,0.0,0.0,97,0.00,,CLR,0.00,VWS V15.00,2014-03-08 06:15:00,
2014-03-08 01:20:00,39.7,38.9,30.02,North,360,0.0,0.0,97,0.00,,CLR,0.00,VWS V15.00,2014-03-08 06:20:00,
2014-03-08 01:25:00,39.7,38.9,30.02,North,360,0.0,0.0,97,0.00,,CLR,0.00,VWS V15.00,2014-03-08 06:25:00,
2014-03-08 01:30:00,39.7,38.9,30.02,North,360,0.0,0.0,97,0.00,,CLR,0.00,VWS V15.00,2014-03-08 06:30:00,
2014-03-08 01:35:00,39.6,38.8,30.03,North,360,0.0,0.0,97,0.00,,CLR,0.00,VWS V15.00,2014-03-08 06:35:00,
2014-03-08 01:40:00,39.6,38.8,30.02,North,360,0.0,0.0,97,0.00,,CLR,0.00,VWS V15.00,2014-03-08 06:40:00,
2014-03-08 01:45:00,39.5,38.7,30.02,North,360,0.0,0.0,97,0.00,,CLR,0.00,VWS V15.00,2014-03-08 06:45:00,
2014-03-08 01:50:00,39.3,38.5,30.02,North,360,0.0,0.0,97,0.00,,CLR,0.00,VWS V15.00,2014-03-08 06:50:00,
2014-03-08 01:55:00,39.3,38.3,30.02,North,360,0.0,0.0,96,0.00,,CLR,0.00,VWS V15.00,2014-03-08 06:55:00,
2014-03-08 02:00:00,39.1,38.1,30.02,North,360,0.0,0.0,96,0.00,,CLR,0.00,VWS V15.00,2014-03-08 07:00:00,
2014-03-08 02:05:00,39.0,38.0,30.02,North,360,0.0,0.0,96,0.00,,CLR,0.00,VWS V15.00,2014-03-08 07:05:00,
2014-03-08 02:10:00,38.9,37.9,30.02,North,360,0.0,0.0,96,0.00,,CLR,0.00,VWS V15.00,2014-03-08 07:10:00,
2014-03-08 02:15:00,38.9,37.9,30.02,North,360,0.0,0.0,96,0.00,,CLR,0.00,VWS V15.00,2014-03-08 07:15:00,
2014-03-08 02:20:00,38.8,37.8,30.02,North,360,0.0,0.0,96,0.00,,CLR,0.00,VWS V15.00,2014-03-08 07:20:00,
2014-03-08 02:25:00,38.8,37.8,30.02,North,360,0.0,0.0,96,0.00,,CLR,0.00,VWS V15.00,2014-03-08 07:25:00,
2014-03-08 02:30:00,38.7,37.7,30.02,North,360,0.0,0.0,96,0.00,,CLR,0.00,VWS V15.00,2014-03-08 07:30:00,
2014-03-08 02:35:00,38.7,37.7,30.02,North,360,0.0,0.0,96,0.00,,CLR,0.00,VWS V15.00,2014-03-08 07:35:00,
2014-03-08 02:40:00,38.7,37.9,30.02,North,360,0.0,0.0,97,0.00,,CLR,0.00,VWS V15.00,2014-03-08 07:40:00,
2014-03-08 02:45:00,38.7,37.9,30.02,North,360,0.0,0.0,97,0.00,,CLR,0.00,VWS V15.00,2014-03-08 07:45:00,
2014-03-08 02:50:00,38.7,37.9,30.02,North,360,0.0,0.0,97,0.00,,CLR,0.00,VWS V15.00,2014-03-08 07:50:00,
2014-03-08 02:55:00,38.7,37.7,30.02,North,360,0.0,0.0,96,0.00,,CLR,0.00,VWS V15.00,2014-03-08 07:55:00,
2014-03-08 03:00:00,38.6,37.6,30.02,North,360,0.0,0.0,96,0.00,,CLR,0.00,VWS V15.00,2014-03-08 08:00:00,
2014-03-08 03:06:00,38.5,37.5,30.02,North,360,0.0,0.0,96,0.00,,CLR,0.00,VWS V15.00,2014-03-08 08:06:00,
2014-03-08 03:11:00,38.4,37.4,30.02,North,360,0.0,0.0,96,0.00,,CLR,0.00,VWS V15.00,2014-03-08 08:11:00,
2014-03-08 03:16:00,38.3,37.3,30.02,North,360,0.0,0.0,96,0.00,,CLR,0.00,VWS V15.00,2014-03-08 08:16:00,
2014-03-08 03:21:00,38.2,37.2,30.02,North,360,0.0,0.0,96,0.00,,CLR,0.00,VWS V15.00,2014-03-08 08:21:00,
2014-03-08 03:26:00,38.1,37.1,30.02,North,360,0.0,0.0,96,0.00,,CLR,0.00,VWS V15.00,2014-03-08 08:26:00,
2014-03-08 03:31:00,38.0,37.0,30.02,North,360,0.0,0.0,96,0.00,,CLR,0.00,VWS V15.00,2014-03-08 08:31:00,
2014-03-08 03:36:00,37.9,36.9,30.02,North,360,0.0,0.0,96,0.00,,CLR,0.00,VWS V15.00,2014-03-08 08:36:00,
2014-03-08 03:41:00,37.9,36.9,30.02,North,360,0.0,0.0,96,0.00,,CLR,0.00,VWS V15.00,2014-03-08 08:41:00,
2014-03-08 03:46:00,37.8,36.8,30.02,North,360,0.0,0.0,96,0.00,,CLR,0.00,VWS V15.00,2014-03-08 08:46:00,
2014-03-08 03:51:00,37.7,36.7,30.02,North,360,0.0,0.0,96,0.00,,CLR,0.00,VWS V15.00,2014-03-08 08:51:00,
2014-03-08 03:56:00,37.6,36.6,30.02,North,360,0.0,0.0,96,0.00,,CLR,0.00,VWS V15.00,2014-03-08 08:56:00,
2014-03-08 04:01:00,37.6,36.6,30.02,North,360,0.0,0.0,96,0.00,,CLR,0.00,VWS V15.00,2014-03-08 09:01:00,
2014-03-08 04:06:00,37.5,36.5,30.02,North,360,0.0,0.0,96,0.00,,CLR,0.00,VWS V15.00,2014-03-08 09:06:00,
2014-03-08 04:11:00,37.4,36.4,30.02,North,360,0.0,0.0,96,0.00,,CLR,0.00,VWS V15.00,2014-03-08 09:11:00,
2014-03-08 04:16:00,37.4,36.4,30.02,North,360,0.0,0.0,96,0.00,,CLR,0.00,VWS V15.00,2014-03-08 09:16:00,
2014-03-08 04:21:00,37.3,36.3,30.03,North,360,0.0,0.0,96,0.00,,CLR,0.00,VWS V15.00,2014-03-08 09:21:00,
2014-03-08 04:26:00,37.2,36.2,30.03,North,360,0.0,0.0,96,0.00,,CLR,0.00,VWS V15.00,2014-03-08 09:26:00,
2014-03-08 04:31:00,37.1,36.1,30.03,North,360,0.0,0.0,96,0.00,,CLR,0.00,VWS V15.00,2014-03-08 09:31:00,
2014-03-08 04:36:00,36.9,35.6,30.04,North,360,0.0,0.0,95,0.00,,CLR,0.00,VWS V15.00,2014-03-08 09:36:00,
2014-03-08 04:39:00,36.8,35.5,30.04,North,360,0.0,0.0,95,0.00,,CLR,0.00,VWS V15.00,2014-03-08 09:39:00,
2014-03-08 04:44:00,36.7,35.7,30.04,North,360,0.0,0.0,96,0.00,,CLR,0.00,VWS V15.00,2014-03-08 09:44:00,
2014-03-08 04:49:00,36.6,35.6,30.04,North,360,0.0,0.0,96,0.00,,CLR,0.00,VWS V15.00,2014-03-08 09:49:00,
2014-03-08 04:54:00,36.5,35.5,30.04,North,360,0.0,0.0,96,0.00,,CLR,0.00,VWS V15.00,2014-03-08 09:54:00,
2014-03-08 04:59:00,36.3,35.0,30.04,North,360,0.0,0.0,95,0.00,,CLR,0.00,VWS V15.00,2014-03-08 09:59:00,
2014-03-08 05:04:00,36.4,35.4,30.04,North,360,0.0,0.0,96,0.00,,CLR,0.00,VWS V15.00,2014-03-08 10:04:00,
2014-03-08 05:09:00,36.5,35.5,30.04,North,360,0.0,0.0,96,0.00,,CLR,0.00,VWS V15.00,2014-03-08 10:09:00,
2014-03-08 05:14:00,36.6,35.6,30.04,North,360,0.0,0.0,96,0.00,,CLR,0.00,VWS V15.00,2014-03-08 10:14:00,
2014-03-08 05:19:00,36.7,35.7,30.05,North,360,0.0,0.0,96,0.00,,CLR,0.00,VWS V15.00,2014-03-08 10:19:00,
2014-03-08 05:24:00,36.8,35.8,30.05,North,360,0.0,0.0,96,0.00,,CLR,0.00,VWS V15.00,2014-03-08 10:24:00,
2014-03-08 05:29:00,37.0,36.2,30.05,North,360,0.0,0.0,97,0.00,,CLR,0.00,VWS V15.00,2014-03-08 10:29:00,
2014-03-08 05:35:00,37.3,36.5,30.05,North,360,0.0,0.0,97,0.00,,CLR,0.00,VWS V15.00,2014-03-08 10:35:00,
2014-03-08 05:40:00,37.5,36.7,30.05,North,360,0.0,0.0,97,0.00,,CLR,0.00,VWS V15.00,2014-03-08 10:40:00,
2014-03-08 05:45:00,37.4,36.6,30.05,North,360,0.0,0.0,97,0.00,,CLR,0.00,VWS V15.00,2014-03-08 10:45:00,
2014-03-08 05:50:00,37.3,36.3,30.06,North,360,0.0,0.0,96,0.00,,SCT002,0.00,VWS V15.00,2014-03-08 10:50:00,
2014-03-08 05:55:00,37.2,36.2,30.06,North,360,0.0,0.0,96,0.00,,SCT002,0.00,VWS V15.00,2014-03-08 10:55:00,
2014-03-08 06:00:00,37.1,36.3,30.06,North,360,0.0,0.0,97,0.00,,SCT002,0.00,VWS V15.00,2014-03-08 11:00:00,
2014-03-08 06:05:00,37.1,36.3,30.06,North,360,0.0,0.0,97,0.00,,BKN002,0.00,VWS V15.00,2014-03-08 11:05:00,
2014-03-08 06:10:00,37.0,36.2,30.06,North,360,0.0,0.0,97,0.00,,BKN002,0.00,VWS V15.00,2014-03-08 11:10:00,
2014-03-08 06:15:00,37.0,36.2,30.07,North,360,0.0,0.0,97,0.00,,BKN002,0.00,VWS V15.00,2014-03-08 11:15:00,
2014-03-08 06:20:00,37.1,36.1,30.07,North,360,0.0,0.0,96,0.00,,BKN002,0.00,VWS V15.00,2014-03-08 11:20:00,
2014-03-08 06:25:00,37.1,36.3,30.07,North,360,0.0,0.0,97,0.00,,BKN002,0.00,VWS V15.00,2014-03-08 11:25:00,
2014-03-08 06:30:00,37.1,36.3,30.07,North,360,0.0,0.0,97,0.00,,BKN002,0.00,VWS V15.00,2014-03-08 11:30:00,
2014-03-08 06:35:00,37.1,36.3,30.07,North,360,0.0,0.0,97,0.00,,BKN002,0.00,VWS V15.00,2014-03-08 11:35:00,
2014-03-08 06:40:00,37.1,36.3,30.07,North,360,0.0,0.0,97,0.00,,BKN002,0.00,VWS V15.00,2014-03-08 11:40:00,
2014-03-08 06:45:00,37.1,36.3,30.07,North,360,0.0,0.0,97,0.00,,,0.00,VWS V15.00,2014-03-08 11:45:00,
2014-03-08 06:50:00,37.1,36.3,30.07,North,360,0.0,0.0,97,0.00,,,0.00,VWS V15.00,2014-03-08 11:50:00,
2014-03-08 06:55:00,37.1,36.3,30.07,North,360,0.0,0.0,97,0.00,,,0.00,VWS V15.00,2014-03-08 11:55:00,
2014-03-08 07:00:00,37.1,36.3,30.08,North,360,0.0,0.0,97,0.00,,,0.00,VWS V15.00,2014-03-08 12:00:00,
2014-03-08 07:05:00,37.1,36.3,30.08,North,360,0.0,0.0,97,0.00,,,0.00,VWS V15.00,2014-03-08 12:05:00,
2014-03-08 07:10:00,37.1,36.3,30.09,North,360,0.0,0.0,97,0.00,,,0.00,VWS V15.00,2014-03-08 12:10:00,
2014-03-08 07:15:00,37.1,36.3,30.09,North,360,0.0,0.0,97,0.00,,,0.00,VWS V15.00,2014-03-08 12:15:00,
2014-03-08 07:20:00,37.1,36.3,30.09,North,360,0.0,0.0,97,0.00,,,0.00,VWS V15.00,2014-03-08 12:20:00,
2014-03-08 07:25:00,37.1,36.3,30.09,North,360,0.0,0.0,97,0.00,,,0.00,VWS V15.00,2014-03-08 12:25:00,
2014-03-08 07:30:00,37.0,36.2,30.10,North,360,0.0,0.0,97,0.00,,,0.00,VWS V15.00,2014-03-08 12:30:00,
2014-03-08 07:35:00,37.0,36.2,30.10,North,360,0.0,0.0,97,0.00,,,0.00,VWS V15.00,2014-03-08 12:35:00,
2014-03-08 07:40:00,36.9,36.1,30.10,North,360,0.0,0.0,97,0.00,,,0.00,VWS V15.00,2014-03-08 12:40:00,
2014-03-08 07:45:00,36.9,36.1,30.10,North,360,0.0,0.0,97,0.00,,,0.00,VWS V15.00,2014-03-08 12:45:00,
2014-03-08 07:50:00,37.0,36.2,30.10,North,360,0.0,3.0,97,0.00,,,0.00,VWS V15.00,2014-03-08 12:50:00,
2014-03-08 07:55:00,37.3,36.5,30.10,North,360,0.0,3.0,97,0.00,,,0.00,VWS V15.00,2014-03-08 12:55:00,
2014-03-08 08:00:00,37.5,36.7,30.11,North,360,0.0,0.0,97,0.00,,,0.00,VWS V15.00,2014-03-08 13:00:00,
2014-03-08 08:05:00,37.9,37.1,30.11,North,360,0.0,0.0,97,0.00,,,0.00,VWS V15.00,2014-03-08 13:05:00,
2014-03-08 08:10:00,38.3,37.8,30.12,North,360,0.0,0.0,98,0.00,,,0.00,VWS V15.00,2014-03-08 13:10:00,
2014-03-08 08:15:00,38.7,38.2,30.12,North,360,0.0,0.0,98,0.00,,,0.00,VWS V15.00,2014-03-08 13:15:00,
2014-03-08 08:20:00,40.6,40.1,30.12,North,360,0.0,0.0,98,0.00,,,0.00,VWS V15.00,2014-03-08 13:20:00,
2014-03-08 08:25:00,41.8,41.3,30.12,North,360,0.0,0.0,98,0.00,,,0.00,VWS V15.00,2014-03-08 13:25:00,
2014-03-08 08:30:00,42.0,41.5,30.12,North,360,0.0,0.0,98,0.00,,,0.00,VWS V15.00,2014-03-08 13:30:00,
2014-03-08 08:36:00,42.4,41.9,30.12,North,360,0.0,0.0,98,0.00,,,0.00,VWS V15.00,2014-03-08 13:36:00,
2014-03-08 08:40:00,42.9,42.4,30.12,North,360,0.0,1.0,98,0.00,,,0.00,VWS V15.00,2014-03-08 13:40:00,
2014-03-08 08:46:00,43.8,43.3,30.12,North,360,0.0,0.0,98,0.00,,,0.00,VWS V15.00,2014-03-08 13:46:00,
2014-03-08 08:51:00,44.9,44.4,30.13,North,360,2.0,2.0,98,0.00,,,0.00,VWS V15.00,2014-03-08 13:51:00,
2014-03-08 08:56:00,45.7,44.9,30.13,North,360,0.0,3.0,97,0.00,,,0.00,VWS V15.00,2014-03-08 13:56:00,
2014-03-08 09:01:00,47.1,45.2,30.13,North,360,2.0,3.0,93,0.00,,CLR,0.00,VWS V15.00,2014-03-08 14:01:00,
2014-03-08 09:06:00,48.3,45.8,30.12,North,360,0.0,3.0,91,0.00,,CLR,0.00,VWS V15.00,2014-03-08 14:06:00,
2014-03-08 09:11:00,49.1,45.4,30.12,North,360,6.0,6.0,87,0.00,,CLR,0.00,VWS V15.00,2014-03-08 14:11:00,
2014-03-08 09:16:00,50.2,44.9,30.12,North,360,5.0,8.0,82,0.00,,FEW001,0.00,VWS V15.00,2014-03-08 14:16:00,
2014-03-08 09:21:00,50.8,45.5,30.12,North,360,6.0,8.0,82,0.00,,FEW001,0.00,VWS V15.00,2014-03-08 14:21:00,
2014-03-08 09:26:00,50.9,44.3,30.13,North,360,7.0,8.0,78,0.00,,FEW001,0.00,VWS V15.00,2014-03-08 14:26:00,
2014-03-08 09:31:00,51.3,45.3,30.13,North,360,0.0,0.0,80,0.00,,FEW001,0.00,VWS V15.00,2014-03-08 14:31:00,
2014-03-08 09:36:00,51.7,44.7,30.13,North,360,0.0,6.0,77,0.00,,FEW001,0.00,VWS V15.00,2014-03-08 14:36:00,
2014-03-08 09:42:00,52.1,45.1,30.13,North,360,1.0,6.0,77,0.00,,FEW001,0.00,VWS V15.00,2014-03-08 14:42:00,
2014-03-08 09:47:00,52.8,45.5,30.13,North,360,1.0,2.0,76,0.00,,FEW001,0.00,VWS V15.00,2014-03-08 14:47:00,
2014-03-08 09:52:00,53.5,44.7,30.13,North,360,0.0,2.0,72,0.00,,FEW001,0.00,VWS V15.00,2014-03-08 14:52:00,
2014-03-08 09:57:00,54.4,45.9,30.13,North,360,0.0,3.0,73,0.00,,FEW001,0.00,VWS V15.00,2014-03-08 14:57:00,
2014-03-08 10:02:00,54.9,45.3,30.13,North,360,2.0,2.0,70,0.00,,CLR,0.00,VWS V15.00,2014-03-08 15:02:00,
2014-03-08 10:07:00,55.1,44.7,30.13,North,360,0.0,7.0,68,0.00,,CLR,0.00,VWS V15.00,2014-03-08 15:07:00,
2014-03-08 10:12:00,55.5,44.3,30.13,North,360,0.0,7.0,66,0.00,,CLR,0.00,VWS V15.00,2014-03-08 15:12:00,
2014-03-08 10:17:00,56.4,44.4,30.13,North,360,0.0,4.0,64,0.00,,CLR,0.00,VWS V15.00,2014-03-08 15:17:00,
2014-03-08 10:22:00,56.8,43.5,30.13,North,360,1.0,9.0,61,0.00,,CLR,0.00,VWS V15.00,2014-03-08 15:22:00,
2014-03-08 10:27:00,57.2,43.5,30.14,North,360,2.0,9.0,60,0.00,,CLR,0.00,VWS V15.00,2014-03-08 15:27:00,
2014-03-08 10:32:00,57.4,42.8,30.14,North,360,4.0,6.0,58,0.00,,CLR,0.00,VWS V15.00,2014-03-08 15:32:00,
2014-03-08 10:37:00,58.1,43.9,30.14,North,360,0.0,6.0,59,0.00,,CLR,0.00,VWS V15.00,2014-03-08 15:37:00,
2014-03-08 10:42:00,58.7,42.6,30.14,North,360,1.0,6.0,55,0.00,,CLR,0.00,VWS V15.00,2014-03-08 15:42:00,
2014-03-08 10:47:00,59.1,43.0,30.14,North,360,2.0,5.0,55,0.00,,CLR,0.00,VWS V15.00,2014-03-08 15:47:00,
2014-03-08 10:52:00,59.5,43.3,30.14,North,5,0.0,5.0,55,0.00,,CLR,0.00,VWS V15.00,2014-03-08 15:52:00,
2014-03-08 10:57:00,59.9,42.7,30.14,North,360,0.0,9.0,53,0.00,,CLR,0.00,VWS V15.00,2014-03-08 15:57:00,
2014-03-08 11:02:00,60.1,42.4,30.14,North,360,5.0,11.0,52,0.00,,CLR,0.00,VWS V15.00,2014-03-08 16:02:00,
2014-03-08 11:07:00,60.4,42.7,30.14,North,360,5.0,11.0,52,0.00,,CLR,0.00,VWS V15.00,2014-03-08 16:07:00,
2014-03-08 11:12:00,60.3,42.6,30.14,North,360,4.0,11.0,52,0.00,,CLR,0.00,VWS V15.00,2014-03-08 16:12:00,
2014-03-08 11:17:00,60.7,43.0,30.13,North,360,3.0,8.0,52,0.00,,CLR,0.00,VWS V15.00,2014-03-08 16:17:00,
2014-03-08 11:22:00,60.8,43.1,30.14,North,360,4.0,9.0,52,0.00,,CLR,0.00,VWS V15.00,2014-03-08 16:22:00,
2014-03-08 11:27:00,61.2,43.5,30.13,North,360,6.0,9.0,52,0.00,,CLR,0.00,VWS V15.00,2014-03-08 16:27:00,
2014-03-08 11:32:00,61.8,43.0,30.14,North,360,2.0,4.0,50,0.00,,CLR,0.00,VWS V15.00,2014-03-08 16:32:00,
2014-03-08 11:37:00,62.6,43.7,30.13,North,360,2.0,6.0,50,0.00,,CLR,0.00,VWS V15.00,2014-03-08 16:37:00,
2014-03-08 11:42:00,62.7,42.2,30.13,North,360,4.0,10.0,47,0.00,,CLR,0.00,VWS V15.00,2014-03-08 16:42:00,
2014-03-08 11:47:00,62.4,41.4,30.13,North,360,3.0,11.0,46,0.00,,CLR,0.00,VWS V15.00,2014-03-08 16:47:00,
2014-03-08 11:48:00,62.3,41.3,30.13,North,360,10.0,11.0,46,0.00,,CLR,0.00,VWS V15.00,2014-03-08 16:48:00,
2014-03-08 11:53:00,63.1,43.7,30.13,North,360,3.0,11.0,49,0.00,,CLR,0.00,VWS V15.00,2014-03-08 16:53:00,
2014-03-08 11:58:00,63.0,44.1,30.13,North,360,0.0,11.0,50,0.00,,CLR,0.00,VWS V15.00,2014-03-08 16:58:00,
2014-03-08 12:03:00,63.3,43.3,30.12,North,360,4.0,11.0,48,0.00,,CLR,0.00,VWS V15.00,2014-03-08 17:03:00,
2014-03-08 12:08:00,63.1,43.1,30.12,North,360,9.0,13.0,48,0.00,,CLR,0.00,VWS V15.00,2014-03-08 17:08:00,
2014-03-08 12:13:00,63.0,43.6,30.12,North,360,5.0,13.0,49,0.00,,CLR,0.00,VWS V15.00,2014-03-08 17:13:00,
2014-03-08 12:18:00,63.6,44.1,30.11,North,360,0.0,5.0,49,0.00,,CLR,0.00,VWS V15.00,2014-03-08 17:18:00,
2014-03-08 12:23:00,64.5,43.3,30.11,North,360,0.0,5.0,46,0.00,,CLR,0.00,VWS V15.00,2014-03-08 17:23:00,
2014-03-08 12:28:00,64.7,42.9,30.11,North,360,3.0,11.0,45,0.00,,CLR,0.00,VWS V15.00,2014-03-08 17:28:00,
2014-03-08 12:33:00,65.0,44.8,30.10,North,360,1.0,5.0,48,0.00,,CLR,0.00,VWS V15.00,2014-03-08 17:33:00,
2014-03-08 12:38:00,65.7,46.6,30.10,North,360,4.0,6.0,50,0.00,,CLR,0.00,VWS V15.00,2014-03-08 17:38:00,
2014-03-08 12:43:00,65.7,45.5,30.10,North,360,5.0,7.0,48,0.00,,CLR,0.00,VWS V15.00,2014-03-08 17:43:00,
2014-03-08 12:48:00,65.3,43.4,30.10,North,360,3.0,5.0,45,0.00,,CLR,0.00,VWS V15.00,2014-03-08 17:48:00,
2014-03-08 12:53:00,65.0,46.5,30.09,North,360,3.0,9.0,51,0.00,,CLR,0.00,VWS V15.00,2014-03-08 17:53:00,
2014-03-08 12:58:00,64.9,43.7,30.09,North,360,3.0,14.0,46,0.00,,CLR,0.00,VWS V15.00,2014-03-08 17:58:00,
2014-03-08 13:03:00,65.1,43.8,30.09,North,360,2.0,12.0,46,0.00,,FEW043,0.00,VWS V15.00,2014-03-08 18:03:00,
2014-03-08 13:08:00,65.2,43.3,30.09,North,360,3.0,13.0,45,0.00,,FEW043,0.00,VWS V15.00,2014-03-08 18:08:00,
2014-03-08 13:13:00,65.5,43.6,30.09,North,360,7.0,13.0,45,0.00,,FEW043,0.00,VWS V15.00,2014-03-08 18:13:00,
2014-03-08 13:18:00,65.7,44.9,30.09,North,360,6.0,13.0,47,0.00,,FEW043,0.00,VWS V15.00,2014-03-08 18:18:00,
2014-03-08 13:23:00,65.6,43.7,30.09,North,360,9.0,13.0,45,0.00,,FEW043,0.00,VWS V15.00,2014-03-08 18:23:00,
2014-03-08 13:28:00,65.3,42.8,30.08,North,360,5.0,13.0,44,0.00,,FEW043,0.00,VWS V15.00,2014-03-08 18:28:00,
2014-03-08 13:34:00,66.5,44.5,30.08,North,360,6.0,9.0,45,0.00,,FEW043,0.00,VWS V15.00,2014-03-08 18:34:00,
2014-03-08 13:39:00,66.1,44.7,30.08,North,360,3.0,9.0,46,0.00,,FEW043,0.00,VWS V15.00,2014-03-08 18:39:00,
2014-03-08 13:44:00,65.9,44.0,30.08,North,360,2.0,11.0,45,0.00,,FEW043,0.00,VWS V15.00,2014-03-08 18:44:00,
2014-03-08 13:49:00,66.1,43.6,30.07,North,360,5.0,14.0,44,0.00,,FEW043,0.00,VWS V15.00,2014-03-08 18:49:00,
2014-03-08 13:54:00,66.5,44.5,30.07,North,360,4.0,14.0,45,0.00,,FEW043,0.00,VWS V15.00,2014-03-08 18:54:00,
2014-03-08 13:59:00,66.9,44.9,30.07,North,360,7.0,14.0,45,0.00,,FEW043,0.00,VWS V15.00,2014-03-08 18:59:00,
2014-03-08 14:04:00,66.8,44.2,30.07,North,360,4.0,6.0,44,0.00,,CLR,0.00,VWS V15.00,2014-03-08 19:04:00,
2014-03-08 14:09:00,66.4,45.0,30.07,North,360,0.0,6.0,46,0.00,,CLR,0.00,VWS V15.00,2014-03-08 19:09:00,
2014-03-08 14:14:00,66.7,45.3,30.07,North,360,4.0,11.0,46,0.00,,CLR,0.00,VWS V15.00,2014-03-08 19:14:00,
2014-03-08 14:19:00,66.8,45.9,30.06,North,360,4.0,7.0,47,0.00,,CLR,0.00,VWS V15.00,2014-03-08 19:19:00,
2014-03-08 14:24:00,66.4,43.8,30.06,North,360,4.0,9.0,44,0.00,,CLR,0.00,VWS V15.00,2014-03-08 19:24:00,
2014-03-08 14:29:00,66.9,43.7,30.06,North,360,4.0,10.0,43,0.00,,CLR,0.00,VWS V15.00,2014-03-08 19:29:00,
2014-03-08 14:34:00,66.8,44.8,30.06,North,360,4.0,10.0,45,0.00,,CLR,0.00,VWS V15.00,2014-03-08 19:34:00,
2014-03-08 14:39:00,67.4,44.2,30.06,North,360,0.0,10.0,43,0.00,,CLR,0.00,VWS V15.00,2014-03-08 19:39:00,
2014-03-08 14:44:00,66.8,45.9,30.07,North,360,3.0,10.0,47,0.00,,CLR,0.00,VWS V15.00,2014-03-08 19:44:00,
2014-03-08 14:49:00,66.6,43.4,30.06,North,360,0.0,10.0,43,0.00,,CLR,0.00,VWS V15.00,2014-03-08 19:49:00,
2014-03-08 14:54:00,67.1,44.5,30.07,North,360,4.0,10.0,44,0.00,,CLR,0.00,VWS V15.00,2014-03-08 19:54:00,
2014-03-08 14:59:00,67.3,43.5,30.07,North,360,6.0,12.0,42,0.00,,CLR,0.00,VWS V15.00,2014-03-08 19:59:00,
2014-03-08 15:04:00,66.9,44.3,30.06,North,360,0.0,10.0,44,0.00,,CLR,0.00,VWS V15.00,2014-03-08 20:04:00,
2014-03-08 15:09:00,67.0,43.8,30.06,North,360,6.0,15.0,43,0.00,,CLR,0.00,VWS V15.00,2014-03-08 20:09:00,
2014-03-08 15:14:00,66.9,43.7,30.06,North,360,4.0,15.0,43,0.00,,CLR,0.00,VWS V15.00,2014-03-08 20:14:00,
2014-03-08 15:19:00,66.8,44.8,30.06,North,360,3.0,10.0,45,0.00,,CLR,0.00,VWS V15.00,2014-03-08 20:19:00,
2014-03-08 15:24:00,67.3,45.2,30.05,North,360,0.0,10.0,45,0.00,,CLR,0.00,VWS V15.00,2014-03-08 20:24:00,
2014-03-08 15:29:00,67.6,44.9,30.05,North,360,0.0,10.0,44,0.00,,CLR,0.00,VWS V15.00,2014-03-08 20:29:00,
2014-03-08 15:34:00,67.8,44.5,30.05,North,360,0.0,10.0,43,0.00,,CLR,0.00,VWS V15.00,2014-03-08 20:34:00,
2014-03-08 15:39:00,68.2,46.1,30.05,North,360,1.0,10.0,45,0.00,,CLR,0.00,VWS V15.00,2014-03-08 20:39:00,
2014-03-08 15:44:00,68.0,44.1,30.05,North,360,3.0,10.0,42,0.00,,CLR,0.00,VWS V15.00,2014-03-08 20:44:00,
2014-03-08 15:49:00,67.7,44.4,30.04,North,360,8.0,11.0,43,0.00,,CLR,0.00,VWS V15.00,2014-03-08 20:49:00,
2014-03-08 15:54:00,67.6,44.3,30.04,North,360,5.0,11.0,43,0.00,,CLR,0.00,VWS V15.00,2014-03-08 20:54:00,
2014-03-08 15:59:00,67.2,43.4,30.04,North,360,9.0,11.0,42,0.00,,CLR,0.00,VWS V15.00,2014-03-08 20:59:00,
2014-03-08 16:04:00,67.0,43.2,30.04,North,360,2.0,6.0,42,0.00,,CLR,0.00,VWS V15.00,2014-03-08 21:04:00,
2014-03-08 16:09:00,67.4,43.5,30.04,North,360,4.0,6.0,42,0.00,,CLR,0.00,VWS V15.00,2014-03-08 21:09:00,
2014-03-08 16:14:00,67.3,44.1,30.04,North,360,4.0,13.0,43,0.00,,CLR,0.00,VWS V15.00,2014-03-08 21:14:00,
2014-03-08 16:19:00,67.0,43.2,30.04,North,360,4.0,7.0,42,0.00,,CLR,0.00,VWS V15.00,2014-03-08 21:19:00,
2014-03-08 16:24:00,67.1,43.9,30.04,North,360,5.0,12.0,43,0.00,,CLR,0.00,VWS V15.00,2014-03-08 21:24:00,
2014-03-08 16:29:00,67.0,44.4,30.04,North,360,0.0,12.0,44,0.00,,CLR,0.00,VWS V15.00,2014-03-08 21:29:00,
2014-03-08 16:34:00,66.6,42.8,30.04,North,360,7.0,13.0,42,0.00,,CLR,0.00,VWS V15.00,2014-03-08 21:34:00,
2014-03-08 16:39:00,66.6,44.0,30.04,North,360,2.0,13.0,44,0.00,,CLR,0.00,VWS V15.00,2014-03-08 21:39:00,
2014-03-08 16:44:00,66.3,44.3,30.04,North,360,0.0,13.0,45,0.00,,CLR,0.00,VWS V15.00,2014-03-08 21:44:00,
2014-03-08 16:49:00,66.3,44.3,30.04,North,360,7.0,11.0,45,0.00,,CLR,0.00,VWS V15.00,2014-03-08 21:49:00,
2014-03-08 16:53:00,66.1,44.2,30.04,North,360,5.0,11.0,45,0.00,,CLR,0.00,VWS V15.00,2014-03-08 21:53:00,
2014-03-08 16:58:00,65.9,44.0,30.04,North,360,2.0,11.0,45,0.00,,CLR,0.00,VWS V15.00,2014-03-08 21:58:00,
2014-03-08 17:03:00,65.7,44.4,30.04,North,360,4.0,11.0,46,0.00,,CLR,0.00,VWS V15.00,2014-03-08 22:03:00,
2014-03-08 17:08:00,65.6,44.3,30.04,North,360,4.0,11.0,46,0.00,,CLR,0.00,VWS V15.00,2014-03-08 22:08:00,
2014-03-08 17:13:00,65.6,43.1,30.04,North,360,3.0,12.0,44,0.00,,CLR,0.00,VWS V15.00,2014-03-08 22:13:00,
2014-03-08 17:18:00,65.3,44.0,30.04,North,360,4.0,13.0,46,0.00,,CLR,0.00,VWS V15.00,2014-03-08 22:18:00,
2014-03-08 17:24:00,64.9,44.8,30.04,North,360,5.0,13.0,48,0.00,,CLR,0.00,VWS V15.00,2014-03-08 22:24:00,
2014-03-08 17:29:00,64.8,44.7,30.04,North,360,4.0,13.0,48,0.00,,CLR,0.00,VWS V15.00,2014-03-08 22:29:00,
2014-03-08 17:34:00,64.7,44.6,30.04,North,360,2.0,7.0,48,0.00,,CLR,0.00,VWS V15.00,2014-03-08 22:34:00,
2014-03-08 17:39:00,64.3,43.7,30.04,North,360,1.0,10.0,47,0.00,,CLR,0.00,VWS V15.00,2014-03-08 22:39:00,
2014-03-08 17:44:00,64.1,43.5,30.04,North,360,5.0,16.0,47,0.00,,CLR,0.00,VWS V15.00,2014-03-08 22:44:00,
2014-03-08 17:49:00,64.0,43.4,30.04,North,360,5.0,10.0,47,0.00,,CLR,0.00,VWS V15.00,2014-03-08 22:49:00,
2014-03-08 17:54:00,63.9,43.8,30.04,North,360,3.0,10.0,48,0.00,,CLR,0.00,VWS V15.00,2014-03-08 22:54:00,
2014-03-08 17:59:00,63.6,43.6,30.05,North,360,6.0,10.0,48,0.00,,CLR,0.00,VWS V15.00,2014-03-08 22:59:00,
2014-03-08 18:04:00,63.5,43.5,30.05,North,360,5.0,8.0,48,0.00,,CLR,0.00,VWS V15.00,2014-03-08 23:04:00,
2014-03-08 18:09:00,63.1,43.7,30.05,North,360,1.0,9.0,49,0.00,,CLR,0.00,VWS V15.00,2014-03-08 23:09:00,
2014-03-08 18:14:00,62.9,43.5,30.05,North,360,2.0,11.0,49,0.00,,CLR,0.00,VWS V15.00,2014-03-08 23:14:00,
2014-03-08 18:19:00,62.7,43.3,30.05,North,360,0.0,7.0,49,0.00,,CLR,0.00,VWS V15.00,2014-03-08 23:19:00,
2014-03-08 18:24:00,62.4,43.5,30.05,North,360,0.0,7.0,50,0.00,,CLR,0.00,VWS V15.00,2014-03-08 23:24:00,
2014-03-08 18:29:00,62.1,43.3,30.05,North,360,1.0,7.0,50,0.00,,CLR,0.00,VWS V15.00,2014-03-08 23:29:00,
2014-03-08 18:34:00,61.6,42.8,30.05,North,360,1.0,7.0,50,0.00,,CLR,0.00,VWS V15.00,2014-03-08 23:34:00,
2014-03-08 18:39:00,61.4,42.6,30.05,North,360,0.0,7.0,50,0.00,,CLR,0.00,VWS V15.00,2014-03-08 23:39:00,
2014-03-08 18:44:00,61.2,43.0,30.06,North,360,2.0,7.0,51,0.00,,CLR,0.00,VWS V15.00,2014-03-08 23:44:00,
2014-03-08 18:49:00,61.0,42.8,30.06,North,360,4.0,7.0,51,0.00,,CLR,0.00,VWS V15.00,2014-03-08 23:49:00,
2014-03-08 18:54:00,60.7,42.5,30.06,North,360,0.0,7.0,51,0.00,,CLR,0.00,VWS V15.00,2014-03-08 23:54:00,
2014-03-08 18:59:00,60.3,42.6,30.07,North,360,0.0,7.0,52,0.00,,CLR,0.00,VWS V15.00,2014-03-08 23:59:00,
2014-03-08 19:04:00,59.9,42.7,30.07,North,360,0.0,1.0,53,0.00,,CLR,0.00,VWS V15.00,2014-03-09 00:04:00,
2014-03-08 19:09:00,59.5,42.9,30.06,North,360,0.0,1.0,54,0.00,,CLR,0.00,VWS V15.00,2014-03-09 00:09:00,
2014-03-08 19:14:00,59.0,41.9,30.06,North,360,0.0,3.0,53,0.00,,CLR,0.00,VWS V15.00,2014-03-09 00:14:00,
2014-03-08 19:19:00,59.0,41.9,30.06,North,360,0.0,1.0,53,0.00,,CLR,0.00,VWS V15.00,2014-03-09 00:19:00,
2014-03-08 19:24:00,58.4,42.8,30.07,North,360,0.0,1.0,56,0.00,,CLR,0.00,VWS V15.00,2014-03-09 00:24:00,
2014-03-08 19:29:00,57.5,42.4,30.07,North,360,3.0,3.0,57,0.00,,CLR,0.00,VWS V15.00,2014-03-09 00:29:00,
2014-03-08 19:34:00,57.5,42.4,30.07,North,360,0.0,5.0,57,0.00,,CLR,0.00,VWS V15.00,2014-03-09 00:34:00,
2014-03-08 19:39:00,57.1,42.5,30.07,North,360,0.0,5.0,58,0.00,,CLR,0.00,VWS V15.00,2014-03-09 00:39:00,
2014-03-08 19:44:00,56.8,42.6,30.07,North,360,0.0,5.0,59,0.00,,CLR,0.00,VWS V15.00,2014-03-09 00:44:00,
2014-03-08 19:49:00,56.4,42.7,30.07,North,360,0.0,0.0,60,0.00,,CLR,0.00,VWS V15.00,2014-03-09 00:49:00,
2014-03-08 19:55:00,56.1,42.4,30.07,North,360,0.0,1.0,60,0.00,,CLR,0.00,VWS V15.00,2014-03-09 00:55:00,
2014-03-08 20:00:00,55.9,42.2,30.07,North,360,0.0,1.0,60,0.00,,CLR,0.00,VWS V15.00,2014-03-09 01:00:00,
2014-03-08 20:05:00,55.8,42.1,30.07,North,360,0.0,1.0,60,0.00,,CLR,0.00,VWS V15.00,2014-03-09 01:05:00,
2014-03-08 20:10:00,55.9,42.2,30.07,North,360,0.0,1.0,60,0.00,,CLR,0.00,VWS V15.00,2014-03-09 01:10:00,
2014-03-08 20:15:00,56.1,42.4,30.07,North,360,0.0,3.0,60,0.00,,CLR,0.00,VWS V15.00,2014-03-09 01:15:00,
2014-03-08 20:20:00,55.9,42.2,30.07,North,360,0.0,1.0,60,0.00,,CLR,0.00,VWS V15.00,2014-03-09 01:20:00,
2014-03-08 20:25:00,55.5,42.7,30.07,North,360,0.0,1.0,62,0.00,,CLR,0.00,VWS V15.00,2014-03-09 01:25:00,
2014-03-08 20:30:00,55.0,42.2,30.07,North,360,0.0,1.0,62,0.00,,CLR,0.00,VWS V15.00,2014-03-09 01:30:00,
2014-03-08 20:35:00,54.5,42.6,30.07,North,360,0.0,0.0,64,0.00,,CLR,0.00,VWS V15.00,2014-03-09 01:35:00,
2014-03-08 20:40:00,54.5,42.2,30.08,North,360,0.0,0.0,63,0.00,,CLR,0.00,VWS V15.00,2014-03-09 01:40:00,
2014-03-08 20:45:00,54.5,42.2,30.08,North,360,0.0,0.0,63,0.00,,CLR,0.00,VWS V15.00,2014-03-09 01:45:00,
2014-03-08 20:50:00,54.5,42.6,30.08,North,360,0.0,0.0,64,0.00,,CLR,0.00,VWS V15.00,2014-03-09 01:50:00,
2014-03-08 20:55:00,54.4,42.5,30.08,North,360,0.0,0.0,64,0.00,,CLR,0.00,VWS V15.00,2014-03-09 01:55:00,
2014-03-08 21:00:00,53.9,42.8,30.08,North,360,0.0,0.0,66,0.00,,CLR,0.00,VWS V15.00,2014-03-09 02:00:00,
2014-03-08 21:05:00,53.1,42.5,30.08,North,360,0.0,0.0,67,0.00,,CLR,0.00,VWS V15.00,2014-03-09 02:05:00,
2014-03-08 21:10:00,52.2,42.3,30.08,North,360,0.0,0.0,69,0.00,,CLR,0.00,VWS V15.00,2014-03-09 02:10:00,
2014-03-08 21:15:00,51.7,42.2,30.08,North,360,0.0,0.0,70,0.00,,CLR,0.00,VWS V15.00,2014-03-09 02:15:00,
2014-03-08 21:20:00,51.6,42.2,30.08,North,360,0.0,0.0,70,0.00,,CLR,0.00,VWS V15.00,2014-03-09 02:20:00,
2014-03-08 21:25:00,52.0,42.2,30.08,North,360,0.0,0.0,69,0.00,,CLR,0.00,VWS V15.00,2014-03-09 02:25:00,
2014-03-08 21:30:00,51.8,42.0,30.08,North,360,0.0,0.0,69,0.00,,CLR,0.00,VWS V15.00,2014-03-09 02:30:00,
2014-03-08 21:35:00,51.2,42.1,30.08,North,360,0.0,0.0,71,0.00,,CLR,0.00,VWS V15.00,2014-03-09 02:35:00,
2014-03-08 21:40:00,51.0,42.3,30.09,North,360,0.0,0.0,72,0.00,,CLR,0.00,VWS V15.00,2014-03-09 02:40:00,
2014-03-08 21:45:00,50.8,42.5,30.09,North,360,0.0,0.0,73,0.00,,CLR,0.00,VWS V15.00,2014-03-09 02:45:00,
2014-03-08 21:50:00,51.3,42.6,30.09,North,360,0.0,0.0,72,0.00,,CLR,0.00,VWS V15.00,2014-03-09 02:50:00,
2014-03-08 21:55:00,52.1,42.6,30.09,North,360,0.0,1.0,70,0.00,,CLR,0.00,VWS V15.00,2014-03-09 02:55:00,
2014-03-08 22:00:00,52.0,42.5,30.09,North,360,0.0,0.0,70,0.00,,CLR,0.00,VWS V15.00,2014-03-09 03:00:00,
2014-03-08 22:05:00,51.6,42.5,30.10,North,360,0.0,1.0,71,0.00,,CLR,0.00,VWS V15.00,2014-03-09 03:05:00,
2014-03-08 22:10:00,51.1,42.4,30.10,North,360,0.0,2.0,72,0.00,,CLR,0.00,VWS V15.00,2014-03-09 03:10:00,
2014-03-08 22:15:00,50.1,42.2,30.10,North,360,0.0,0.0,74,0.00,,CLR,0.00,VWS V15.00,2014-03-09 03:15:00,
2014-03-08 22:20:00,50.0,42.0,30.10,North,360,0.0,0.0,74,0.00,,CLR,0.00,VWS V15.00,2014-03-09 03:20:00,
2014-03-08 22:25:00,50.0,42.4,30.10,North,360,0.0,1.0,75,0.00,,CLR,0.00,VWS V15.00,2014-03-09 03:25:00,
2014-03-08 22:30:00,50.5,42.5,30.09,North,360,0.0,0.0,74,0.00,,CLR,0.00,VWS V15.00,2014-03-09 03:30:00,
2014-03-08 22:35:00,51.0,42.7,30.10,North,360,0.0,2.0,73,0.00,,CLR,0.00,VWS V15.00,2014-03-09 03:35:00,
2014-03-08 22:40:00,51.5,42.8,30.10,North,360,0.0,2.0,72,0.00,,CLR,0.00,VWS V15.00,2014-03-09 03:40:00,
2014-03-08 22:45:00,51.5,42.8,30.10,North,360,0.0,1.0,72,0.00,,CLR,0.00,VWS V15.00,2014-03-09 03:45:00,
2014-03-08 22:50:00,51.4,42.7,30.10,North,360,0.0,1.0,72,0.00,,CLR,0.00,VWS V15.00,2014-03-09 03:50:00,
2014-03-08 22:55:00,51.5,43.1,30.10,North,360,0.0,1.0,73,0.00,,CLR,0.00,VWS V15.00,2014-03-09 03:55:00,
2014-03-08 23:00:00,51.4,43.0,30.10,North,360,0.0,0.0,73,0.00,,CLR,0.00,VWS V15.00,2014-03-09 04:00:00,
2014-03-08 23:05:00,51.2,42.9,30.10,North,360,0.0,0.0,73,0.00,,CLR,0.00,VWS V15.00,2014-03-09 04:05:00,
2014-03-08 23:10:00,51.0,43.0,30.10,North,360,0.0,1.0,74,0.00,,CLR,0.00,VWS V15.00,2014-03-09 04:10:00,
2014-03-08 23:15:00,50.9,42.9,30.10,North,360,1.0,2.0,74,0.00,,CLR,0.00,VWS V15.00,2014-03-09 04:15:00,
2014-03-08 23:21:00,50.9,42.9,30.10,North,360,0.0,2.0,74,0.00,,CLR,0.00,VWS V15.00,2014-03-09 04:21:00,
2014-03-08 23:26:00,51.0,43.0,30.09,North,360,0.0,2.0,74,0.00,,CLR,0.00,VWS V15.00,2014-03-09 04:26:00,
2014-03-08 23:31:00,51.2,43.2,30.09,North,360,0.0,0.0,74,0.00,,CLR,0.00,VWS V15.00,2014-03-09 04:31:00,
2014-03-08 23:36:00,51.2,43.2,30.10,North,360,0.0,1.0,74,0.00,,CLR,0.00,VWS V15.00,2014-03-09 04:36:00,
2014-03-08 23:41:00,51.0,43.0,30.10,North,360,0.0,1.0,74,0.00,,CLR,0.00,VWS V15.00,2014-03-09 04:41:00,
2014-03-08 23:46:00,51.0,43.4,30.09,North,360,0.0,0.0,75,0.00,,CLR,0.00,VWS V15.00,2014-03-09 04:46:00,
2014-03-08 23:51:00,51.0,43.4,30.09,North,360,0.0,1.0,75,0.00,,CLR,0.00,VWS V15.00,2014-03-09 04:51:00,
2014-03-08 23:56:00,50.8,43.5,30.10,North,360,0.0,1.0,76,0.00,,CLR,0.00,VWS V15.00,2014-03-09 04:56:00,